Location: Kaltenbach
(49.2000°N, 7.7500°E)
Time: 21:28:45
(UTC+00:00)

Ariane Rocket - Pass Details

Date: 24 January 2020
Orbit: 761 x 769 km, 98.7° (Epoch: 17 February)

Event Time Altitude Azimuth Distance (km) Brightness Sun altitude
Rises 18:48:27 0° 171° (S) 3,215 6.1 -25.3°
Reaches altitude 10° 18:50:45 10° 174° (S) 2,295 5.4 -25.7°
Maximum altitude 18:55:47 68° 257° (WSW) 826 3.2 -26.5°
Drops below altitude 10° 19:00:53 10° 341° (NNW) 2,318 5.7 -27.4°
Sets 19:03:13 0° 344° (NNW) 3,250 6.5 -27.7°
